Location: Hamburg
(53.5500°N, 10.0000°E)
Time: 03:26:54
(UTC+02:00)

Vanguard 1 Rocket - Visible Passes

Search period start: 26 April 2015 00:00
Search period end: 06 May 2015 00:00
Orbit: 655 x 4224 km, 34.3° (Epoch: 22 April)

Date Brightness Start Highest point End Pass type
(mag) Time Alt. Az. Time Alt. Az. Time Alt. Az.
26 Apr 10.9 01:56:29 27° S 02:06:10 35° SSE 02:25:38 10° E visible
26 Apr 10.7 04:13:39 13° WSW 04:35:20 44° S 04:52:44 10° ESE visible
27 Apr 10.9 00:47:58 26° SSE 00:53:09 28° SE 01:12:09 10° E visible
27 Apr 10.8 03:05:06 21° SW 03:21:55 43° SSE 03:41:12 10° ESE visible
27 Apr 11.1 23:39:14 20° SE 23:40:38 20° SE 23:56:54 10° E visible
28 Apr 10.8 01:56:20 26° SSW 02:08:27 38° SSE 02:28:53 10° E visible
28 Apr 10.7 04:14:25 10° WSW 04:37:49 45° S 04:55:46 10° ESE visible
28 Apr 11.3 22:30:10 12° ESE 22:30:10 12° ESE 22:36:58 10° ESE visible
29 Apr 10.8 00:47:15 27° S 00:55:17 32° SSE 01:15:34 10° E visible
29 Apr 10.7 03:04:18 15° SW 03:24:19 45° S 03:44:16 10° ESE visible
29 Apr 10.9 23:37:31 22° SSE 23:42:40 24° SE 00:00:53 10° E visible
30 Apr 10.8 01:54:29 20° SSW 02:10:45 41° SSE 02:31:57 10° ESE visible
30 Apr 10.7 04:16:53 10° WSW 04:40:15 45° S 04:58:40 10° SE visible
30 Apr 11.0 22:25:43 14° SE 22:30:42 16° SE 22:43:38 10° E visible
01 May 10.8 00:41:52 16° SSW 00:57:27 36° SSE 01:18:44 10° E visible
01 May 10.7 03:03:52 10° WSW 03:26:42 46° S 03:47:11 10° ESE visible
01 May 10.9 23:29:03 10° S 23:44:42 28° SE 00:04:22 10° E visible
02 May 10.7 01:51:47 10° SW 02:13:02 44° SSE 02:34:54 10° ESE visible
02 May 10.8 04:19:28 10° WSW 04:42:37 44° SSW 05:01:25 10° SE visible
02 May 10.9 22:21:17 10° SSE 22:32:40 19° SE 22:48:13 10° E visible
03 May 10.7 00:40:42 10° SW 00:59:38 39° SSE 01:21:44 10° E visible
03 May 10.7 03:06:25 10° WSW 03:29:04 46° S 03:49:59 10° ESE visible
03 May 11.1 21:19:26 10° SE 21:21:21 10° ESE 21:26:06 10° ESE visible
03 May 10.7 23:30:43 10° SSW 23:46:48 32° SE 00:07:33 10° E visible
04 May 10.7 01:54:15 10° SW 02:15:21 45° S 02:37:43 10° ESE visible
04 May 10.8 04:22:10 10° WSW 04:44:56 42° SSW 05:03:59 10° SE visible
04 May 10.8 22:22:09 10° S 22:34:41 23° SE 22:51:59 10° E visible
05 May 10.6 00:43:01 10° SW 01:01:52 41° SSE 01:24:34 10° E visible
05 May 10.7 03:09:05 10° WSW 03:31:24 46° S 03:52:39 10° SE visible
05 May 10.9 21:16:21 10° SSE 21:23:18 14° SE 21:33:41 10° E visible
